GW3912 Weather Reports


time (UTC)temp
C
wind
direction
speed
KPH
gust
KPH
rain 1hr
cm
rain 24hr
cm
rain mn
cm
humidity
%
barometer
mb
20260503230509 18 202 0.0 3.2 0.00 0.00 0.00 60 1017.5
20260503230024 18 202 0.0 3.2 0.00 0.00 0.00 60 1017.6
20260503225513 18 159 0.0 1.6 0.00 0.00 0.00 60 1017.7
20260503225008 18 161 0.0 4.8 0.00 0.00 0.00 59 1017.6
20260503224526 18 123 0.0 4.8 0.00 0.00 0.00 59 1017.6
20260503224007 18 214 0.0 3.2 0.00 0.00 0.00 59 1017.6
20260503223509 18 228 0.0 3.2 0.00 0.00 0.00 58 1017.6
20260503223013 18 240 0.0 1.6 0.00 0.00 0.00 58 1017.6
20260503222504 18 250 0.0 3.2 0.00 0.00 0.00 58 1017.6
20260503222008 18 194 0.0 3.2 0.00 0.00 0.00 57 1017.6
20260503221529 19 131 0.0 4.8 0.00 0.00 0.00 58 1017.5
20260503221009 19 194 0.0 4.8 0.00 0.00 0.00 58 1017.4
20260503220509 19 129 0.0 6.4 0.00 0.00 0.00 57 1017.4
20260503220021 19 265 1.6 6.4 0.00 0.00 0.00 56 1017.3
20260503215509 19 182 0.0 6.4 0.00 0.00 0.00 57 1017.4
20260503215016 19 215 0.0 4.8 0.00 0.00 0.00 59 1017.4
20260503214524 19 240 0.0 3.2 0.00 0.00 0.00 57 1017.4
20260503214010 19 206 0.0 6.4 0.00 0.00 0.00 57 1017.3
20260503213512 19 166 0.0 6.4 0.00 0.00 0.00 57 1017.4
20260503213034 20 191 0.0 3.2 0.00 0.00 0.00 57 1017.4
20260503212505 20 95 0.0 3.2 0.00 0.00 0.00 56 1017.4
20260503212004 20 220 0.0 3.2 0.00 0.00 0.00 56 1017.4
20260503211516 20 210 0.0 4.8 0.00 0.00 0.00 57 1017.5
20260503211003 20 221 0.0 4.8 0.00 0.00 0.00 57 1017.5
20260503210503 20 110 0.0 4.8 0.00 0.00 0.00 57 1017.5
20260503210003 20 171 0.0 4.8 0.00 0.00 0.00 57 1017.6
20260503205503 20 234 0.0 4.8 0.00 0.00 0.00 57 1017.7
20260503205007 20 169 0.0 4.8 0.00 0.00 0.00 56 1017.7
20260503204504 20 166 0.0 3.2 0.00 0.00 0.00 57 1017.8
20260503204005 19 127 0.0 3.2 0.00 0.00 0.00 57 1017.9
20260503203504 19 51 0.0 6.4 0.00 0.00 0.00 56 1017.9
20260503203007 19 178 0.0 6.4 0.00 0.00 0.00 56 1017.8
20260503202506 19 192 0.0 3.2 0.00 0.00 0.00 57 1017.8
20260503202004 19 242 0.0 3.2 0.00 0.00 0.00 57 1017.8
20260503201513 19 116 0.0 4.8 0.00 0.00 0.00 57 1017.9
20260503201005 19 67 0.0 8.0 0.00 0.00 0.00 57 1018.0
20260503200509 19 240 1.6 9.7 0.00 0.03 0.00 56 1018.1
20260503200020 20 148 1.6 11.3 0.00 0.03 0.00 56 1018.1
20260503195509 20 235 0.0 11.3 0.00 0.03 0.00 56 1018.0
20260503195003 20 89 0.0 4.8 0.00 0.03 0.00 56 1018.1
20260503194521 20 101 1.6 4.8 0.00 0.03 0.00 57 1018.2
20260503194002 20 77 1.6 4.8 0.00 0.03 0.00 54 1018.3
20260503193504 20 88 1.6 4.8 0.00 0.03 0.00 52 1018.3
20260503193005 20 200 0.0 4.8 0.00 0.05 0.00 54 1018.4
20260503192504 20 199 0.0 4.8 0.00 0.10 0.00 56 1018.5
20260503192009 20 82 0.0 4.8 0.00 0.13 0.00 58 1018.6
20260503191509 19 114 0.0 3.2 0.00 0.13 0.00 57 1018.7
20260503191004 19 105 0.0 3.2 0.00 0.13 0.00 60 1018.9
20260503190508 19 59 0.0 3.2 0.00 0.15 0.00 57 1018.9
20260503190036 19 78 0.0 4.8 0.00 0.15 0.00 57 1019.1
20260503185505 19 76 0.0 8.0 0.00 0.18 0.00 57 1019.1
20260503185004 19 53 1.6 8.0 0.00 0.18 0.00 56 1019.0
20260503184521 18 154 0.0 3.2 0.00 0.18 0.00 59 1019.2
20260503184008 19 130 0.0 6.4 0.00 0.18 0.00 58 1019.2
20260503183503 19 89 0.0 6.4 0.00 0.18 0.00 59 1019.2
20260503183017 19 80 1.6 6.4 0.00 0.20 0.00 54 1019.3
20260503182505 20 88 0.0 3.2 0.00 0.23 0.00 56 1019.4
20260503182005 20 82 0.0 3.2 0.00 0.25 0.00 55 1019.5
20260503181508 20 93 0.0 3.2 0.00 0.28 0.00 57 1019.5
20260503181005 21 182 0.0 3.2 0.00 0.28 0.00 56 1019.5
20260503180506 21 81 0.0 3.2 0.00 0.28 0.00 50 1019.4
20260503180022 21 223 0.0 3.2 0.00 0.28 0.00 48 1019.4
20260503175506 21 69 0.0 1.6 0.00 0.28 0.00 52 1019.4
20260503175005 21 185 0.0 4.8 0.00 0.28 0.00 54 1019.4
20260503174517 21 65 0.0 6.4 0.00 0.28 0.00 52 1019.4
20260503174006 20 105 1.6 6.4 0.00 0.30 0.00 45 1019.3
20260503173509 20 257 1.6 8.0 0.00 0.30 0.00 46 1019.3
20260503173021 20 349 1.6 8.0 0.00 0.30 0.00 48 1019.4
20260503172510 20 352 1.6 8.0 0.00 0.33 0.00 50 1019.5
20260503172003 20 360 0.0 6.4 0.00 0.33 0.00 48 1019.5
20260503171504 20 88 0.0 6.4 0.00 0.36 0.00 49 1019.5
20260503171004 20 56 0.0 6.4 0.00 0.43 0.00 47 1019.5
20260503170504 20 40 0.0 3.2 0.00 0.53 0.00 46 1019.6
20260503151012 18 162 1.6 6.4 0.00 0.91 0.00 51 1020.4
20260503150508 18 261 1.6 9.7 0.00 0.94 0.00 55 1020.3
20260503131007 14 296 0.0 6.4 0.00 1.83 0.00 83 1019.8
20260503130512 13 293 1.6 6.4 0.00 1.91 0.00 83 1019.8
20260503110505 8 304 0.0 0.0 0.00 2.26 0.00 92 1018.7
20260503090510 9 304 0.0 0.0 0.00 2.82 0.00 91 1016.9
20260503081505 9 304 0.0 0.0 0.00 3.02 0.00 91 1016.6
20260503081006 9 304 0.0 0.0 0.00 3.05 0.00 91 1016.6
20260503080505 9 304 0.0 0.0 0.00 3.07 0.00 91 1016.7
20260503072507 10 304 0.0 0.0 0.00 3.17 0.00 91 1016.4
20260503072013 10 304 0.0 0.0 0.00 3.17 0.00 91 1016.4
20260503071523 10 304 0.0 0.0 0.00 3.17 0.00 91 1016.3
20260503071007 10 304 0.0 0.0 0.00 3.20 0.00 91 1016.3
20260503070508 10 304 0.0 0.0 0.00 3.20 0.00 91 1016.3
20260503055009 11 280 0.0 1.6 0.00 3.25 0.00 91 1016.2
20260503054537 11 280 0.0 1.6 0.00 3.28 0.00 90 1016.2
20260503054006 11 280 0.0 1.6 0.00 3.28 0.00 90 1016.2
20260503053506 11 280 0.0 0.0 0.00 3.30 0.00 90 1016.1
20260503053015 11 280 0.0 0.0 0.00 3.30 0.00 90 1016.1
20260503052505 11 280 0.0 1.6 0.00 3.30 0.00 90 1016.0
20260503052011 11 280 0.0 1.6 0.00 3.30 0.00 90 1016.0
20260503051523 11 280 0.0 1.6 0.00 3.30 0.00 90 1016.1
20260503051009 11 280 0.0 1.6 0.00 3.30 0.00 90 1016.1
20260503050505 11 280 0.0 1.6 0.00 3.30 0.00 90 1016.0
20260503050023 11 280 0.0 1.6 0.00 3.30 0.00 90 1015.9
20260503045511 11 284 0.0 1.6 0.00 3.30 0.00 90 1015.9
20260503045007 11 284 0.0 1.6 0.00 3.30 0.00 90 1015.8
20260503044526 12 284 0.0 1.6 0.00 3.30 0.00 90 1015.7
20260503044008 12 284 0.0 0.0 0.00 3.30 0.00 90 1015.6
20260503043507 12 284 0.0 3.2 0.00 3.30 0.00 90 1015.7
20260503043028 12 284 0.0 3.2 0.00 3.30 0.00 90 1015.7
20260503042507 12 300 0.0 3.2 0.00 3.30 0.00 90 1015.6
20260503042006 12 259 0.0 3.2 0.00 3.30 0.00 90 1015.5
20260503041519 12 259 0.0 3.2 0.00 3.30 0.00 90 1015.5
20260503041006 12 268 0.0 3.2 0.00 3.30 0.00 90 1015.4
20260503040512 12 274 0.0 1.6 0.00 3.30 0.00 90 1015.3
20260503040027 12 275 0.0 0.0 0.00 3.30 0.00 90 1015.4
20260503035506 12 275 0.0 0.0 0.00 3.30 3.30 89 1015.2
20260503035008 12 275 0.0 1.6 0.00 3.30 3.30 89 1015.0
20260503034527 12 275 0.0 1.6 0.00 3.30 3.30 89 1015.0
20260503034006 12 275 0.0 1.6 0.00 3.30 3.30 89 1015.0
20260503033508 12 275 0.0 1.6 0.00 3.30 3.30 89 1014.9
20260503033040 12 275 0.0 1.6 0.00 3.30 3.30 89 1014.9
20260503032510 12 275 0.0 4.8 0.00 3.30 3.30 89 1014.9
20260503032009 12 275 0.0 4.8 0.00 3.30 3.30 88 1014.9
20260503031528 12 183 0.0 3.2 0.00 3.30 3.30 88 1014.8
20260503031010 12 162 0.0 3.2 0.00 3.30 3.30 88 1014.6
20260503030507 12 278 0.0 3.2 0.00 3.30 3.30 88 1014.7
20260503030018 12 278 0.0 3.2 0.00 3.30 3.30 89 1014.6
20260503025507 12 275 0.0 3.2 0.00 3.33 3.30 89 1014.6
20260503025009 12 275 0.0 3.2 0.00 3.33 3.30 89 1014.5
20260503024504 12 170 0.0 1.6 0.00 3.33 3.30 89 1014.5
20260503024004 12 294 0.0 3.2 0.00 3.33 3.30 89 1014.4
20260503023503 12 294 0.0 6.4 0.00 3.33 3.30 88 1014.4
20260503023008 12 284 1.6 6.4 0.00 3.33 3.30 89 1014.2
20260503022503 12 246 0.0 3.2 0.00 3.33 3.30 89 1014.0
20260503022004 12 286 0.0 3.2 0.00 3.33 3.30 89 1013.9
20260503021510 12 157 0.0 3.2 0.00 3.33 3.30 89 1013.7
20260503021005 12 157 0.0 3.2 0.00 3.33 3.30 88 1013.7
20260503020505 12 283 0.0 3.2 0.00 3.35 3.30 88 1013.7
20260503020014 12 139 0.0 3.2 0.00 3.35 3.30 88 1013.8
20260503015508 12 278 0.0 3.2 0.00 3.35 3.30 88 1013.7
20260503015005 12 271 0.0 3.2 0.00 3.35 3.30 88 1013.6
20260503014514 12 292 0.0 3.2 0.00 3.35 3.30 88 1013.4
20260503014007 12 267 1.6 3.2 0.00 3.35 3.30 89 1013.3
20260503013504 12 290 0.0 3.2 0.00 3.35 3.30 89 1013.2
20260503013006 12 202 0.0 3.2 0.00 3.35 3.30 88 1013.1
20260503012504 12 286 0.0 3.2 0.00 3.35 3.30 88 1013.1
20260503012004 12 226 0.0 3.2 0.00 3.35 3.30 89 1013.2
20260503011510 12 275 0.0 3.2 0.00 3.35 3.30 88 1013.4
20260503011004 12 298 0.0 3.2 0.00 3.35 3.30 89 1013.4
20260503010508 12 212 0.0 3.2 0.00 3.35 3.30 89 1013.4
20260503010016 12 283 0.0 4.8 0.00 3.35 3.30 88 1013.4
20260503005505 12 5 0.0 4.8 0.00 3.35 3.30 88 1013.4
20260503005007 12 286 1.6 4.8 0.00 3.35 3.30 88 1013.4
20260503004524 12 317 1.6 4.8 0.00 3.35 3.30 88 1013.2
20260503004006 12 293 0.0 4.8 0.00 3.35 3.30 89 1012.9
20260503003506 12 259 0.0 4.8 0.00 3.35 3.30 89 1012.9
20260503003015 12 293 0.0 6.4 0.00 3.35 3.30 89 1012.9
20260503002504 12 288 0.0 6.4 0.00 3.35 3.30 89 1012.8
20260503002004 12 282 1.6 6.4 0.00 3.38 3.30 89 1012.5
20260503001504 13 146 0.0 3.2 0.00 3.38 3.30 89 1012.5
20260503001003 13 290 0.0 3.2 0.00 3.38 3.30 89 1012.5
20260503000508 13 63 0.0 4.8 0.00 3.40 3.30 89 1012.3
20260503000010 13 11 0.0 4.8 0.00 3.40 3.30 89 1012.5
20260502235505 13 75 0.0 3.2 0.00 3.48 3.30 89 1012.4
20260502235008 13 107 0.0 1.6 0.00 3.51 3.30 89 1012.5
20260502234515 13 220 0.0 3.2 0.00 3.51 3.30 89 1012.4
20260502234006 13 162 0.0 4.8 0.00 3.53 3.30 89 1012.1
20260502233507 13 75 1.6 9.7 0.00 3.56 3.30 89 1012.0
20260502233018 13 298 1.6 9.7 0.00 3.56 3.30 89 1012.1
20260502232507 13 273 1.6 4.8 0.00 3.56 3.30 89 1012.0
20260502232007 13 267 0.0 3.2 0.00 3.56 3.30 89 1011.9
20260502231518 13 285 0.0 4.8 0.00 3.58 3.30 90 1011.7
20260502231009 13 294 1.6 4.8 0.00 3.58 3.30 90 1011.6